Location: Belfast
(54.5830°N, 5.9330°W)
Time: 11:29:13
(UTC+00:00)

ISS - Visible Passes

Search period start: 23 February 2024 00:00
Search period end: 04 March 2024 00:00
Orbit: 414 x 417 km, 51.6° (Epoch: 23 February)

Date Brightness Start Highest point End Pass type
(mag) Time Alt. Az. Time Alt. Az. Time Alt. Az.
23 Feb -2.1 05:05:35 25° SSE 05:05:39 25° SSE 05:08:29 10° E visible
23 Feb -3.1 06:38:44 10° WSW 06:41:59 49° S 06:45:16 10° E visible
24 Feb -0.8 04:18:52 14° ESE 04:18:52 14° ESE 04:19:40 10° ESE visible
24 Feb -3.0 05:51:45 24° SW 05:53:25 44° SSE 05:56:39 10° E visible
25 Feb -2.8 05:04:58 37° SSE 05:04:58 37° SSE 05:07:58 10° E visible
25 Feb -3.2 06:37:59 10° W 06:41:16 51° S 06:44:33 10° ESE visible
26 Feb -1.1 04:18:07 18° ESE 04:18:07 18° ESE 04:19:14 10° E visible
26 Feb -3.3 05:51:00 26° WSW 05:52:37 51° S 05:55:54 10° ESE visible
27 Feb -3.2 05:04:06 48° SSE 05:04:06 48° SSE 05:07:11 10° E visible
27 Feb -3.0 06:37:11 10° W 06:40:23 42° SSW 06:43:35 10° ESE visible
28 Feb -1.3 04:17:10 20° ESE 04:17:10 20° ESE 04:18:26 10° E visible
28 Feb -3.3 05:50:03 25° WSW 05:51:41 48° S 05:54:56 10° ESE visible
29 Feb -3.4 05:03:05 50° S 05:03:05 50° S 05:06:12 10° ESE visible
29 Feb -2.5 06:36:19 10° W 06:39:18 30° SSW 06:42:17 10° SE visible
01 Mar -1.4 04:16:07 21° ESE 04:16:07 21° ESE 04:17:25 10° E visible
01 Mar -2.9 05:48:59 23° WSW 05:50:34 37° SSW 05:53:41 10° SE visible
02 Mar -3.1 05:02:02 42° S 05:02:02 42° S 05:04:59 10° ESE visible
03 Mar -1.3 04:15:05 19° ESE 04:15:05 19° ESE 04:16:11 10° ESE visible
03 Mar -2.4 05:47:57 19° WSW 05:49:13 24° SSW 05:52:01 10° SSE visible
